Preview of NWS' New Version of Forecast
This preview is not operational and should not be used for support decisions.

Regional Weather Roundup (RWR)

Issued by National Weather Service (NWS)

                            
000
ASUS43 KLSX 161707
RWRMO 

WEATHER SUMMARY FOR MISSOURI
NATIONAL WEATHER SERVICE SPRINGFIELD MO
1200 PM CDT MON SEP 16 2019

NOTE: "FAIR" INDICATES FEW OR NO CLOUDS BELOW 12,000 FEET WITH NO
       SIGNIFICANT WEATHER AND/OR OBSTRUCTIONS TO VISIBILITY.
       CURRENT SKY AND/OR WEATHER CONDITIONS ARE NOT AVAILABLE FOR
       CHILLICOTHE AND FARMINGTON.

MOZ001>031-035>038-043-044-053-054-161800-
...NORTHERN AND WESTERN MISSOURI...
  
CITY           SKY/WX    TMP DP  RH WIND       PRES   REMARKS
KANSAS CTY INT MOSUNNY   86  72  62 S7        30.10F HX  92           
KANSAS C DTWN  SUNNY     90  68  48 SW7       30.08F HX  94           
LEE'S SUMMIT   SUNNY     88  69  53 SW9       30.11F HX  92           
ST JOSEPH      SUNNY     88  71  57 SW7       30.07F HX  94           
CHILLICOTHE      N/A     88  73  61 VRB3      30.10F HX  95           
KIRKSVILLE     SUNNY     89  70  53 MISG      30.12F HX  94           
     
$$
MOZ066>068-077>081-088>096-101>105-161800-
...SOUTHWEST MISSOURI...
  
CITY           SKY/WX    TMP DP  RH WIND       PRES   REMARKS
SPRINGFIELD    SUNNY     90  68  48 SW5       30.14F HX  94           
JOPLIN         SUNNY     88  72  58 SW8       30.13S HX  94           
BRANSON        MOSUNNY   90  64  43 CALM      30.16F HX  91           
               
$$
MOZ032>034-039>042-045>050-055>058-069>072-161800-
...CENTRAL MISSOURI...  
  
CITY           SKY/WX    TMP DP  RH WIND       PRES   REMARKS
COLUMBIA       SUNNY     89  71  55 W6        30.12F HX  95           
JEFFERSON CITY SUNNY     89  71  55 CALM      30.11F HX  95           
ROLLA          SUNNY     89  69  51 VRB6      30.15F HX  93           
SEDALIA        SUNNY     87  70  56 VRB7      30.12F HX  92           
WHITEMAN AFB   MOSUNNY   89  70  53 SW5       30.07F HX  94           
WARRENSBURG    SUNNY     88  70  55 SW5       30.10F HX  92           
OSAGE BEACH    SUNNY     88  71  57 SW10      30.13F HX  94           
               
$$
MOZ051-052-059>065-161800-
...EAST CENTRAL MISSOURI...
  
CITY           SKY/WX    TMP DP  RH WIND       PRES   REMARKS
ST LOUIS INTL  MOSUNNY   91  71  51 W10       30.11S HX  97           
SPIRIT OF STL  SUNNY     90  73  57 W5        30.09F HX  98           
ST CHARLES       N/A    N/A N/A N/A MISG      30.08F                  
                   
$$
MOZ072>076-082>087-097>100-106>115-161800-
...SOUTH CENTRAL AND SOUTHEAST MISSOURI...
  
CITY           SKY/WX    TMP DP  RH WIND       PRES   REMARKS
CAPE GIRARDEAU FAIR      93  69  45 W6        30.09F HX  98           
FARMINGTON     SUNNY     91  69  48 VRB5      30.14F HX  96           
POPLAR BLUFF   FAIR      92  68  45 NW3       30.10F HX  96           
WEST PLAINS    SUNNY     90  67  46 SE3       30.16F HX  93           
                                       
$$